CW8053 Weather Reports


time (UTC)temp
C
wind
direction
speed
KPH
gust
KPH
rain 1hr
cm
rain 24hr
cm
rain mn
cm
humidity
%
barometer
mb
20260507224427 12 26 0.0 3.2 0.00 0.05 0.00 90 1014.7
20260507223527 12 0 0.0 0.0 0.00 0.05 0.00 90 1014.7
20260507222627 12 8 0.0 1.6 0.00 0.05 0.00 90 1014.6
20260507221730 12 13 1.6 1.6 0.00 0.05 0.00 90 1014.7
20260507220848 12 23 0.0 1.6 0.00 0.05 0.00 90 1014.6
20260507215927 12 0 0.0 0.0 0.00 0.05 0.00 90 1014.6
20260507215328 12 0 0.0 0.0 0.00 0.05 0.05 90 1014.5
20260507214428 12 0 0.0 0.0 0.00 0.05 0.05 90 1014.5
20260507213527 12 13 1.6 3.2 0.00 0.05 0.05 90 1014.3
20260507212627 12 0 0.0 0.0 0.00 0.05 0.05 90 1014.3
20260507211727 13 0 0.0 0.0 0.00 0.05 0.05 90 1014.3
20260507210828 13 0 0.0 0.0 0.00 0.05 0.05 90 1014.4
20260507205948 13 0 0.0 0.0 0.00 0.05 0.05 90 1014.4
20260507205327 13 0 0.0 0.0 0.00 0.05 0.05 89 1014.4
20260507204427 13 0 0.0 0.0 0.00 0.05 0.05 89 1014.4
20260507203528 13 0 0.0 0.0 0.00 0.05 0.05 89 1014.4
20260507202627 13 0 0.0 0.0 0.00 0.05 0.05 89 1014.3
20260507201727 13 0 0.0 0.0 0.00 0.05 0.05 89 1014.3
20260507200849 13 0 0.0 0.0 0.00 0.05 0.05 88 1014.3
20260507195927 13 11 0.0 1.6 0.00 0.05 0.05 88 1014.2
20260507195348 13 22 1.6 3.2 0.00 0.05 0.05 88 1014.1
20260507194448 14 0 0.0 0.0 0.00 0.05 0.05 88 1014.1
20260507193527 14 0 0.0 0.0 0.00 0.05 0.05 87 1014.0
20260507192638 14 0 0.0 0.0 0.00 0.05 0.05 87 1014.0
20260507191748 15 0 0.0 0.0 0.00 0.05 0.05 86 1014.0
20260507190827 15 0 0.0 0.0 0.00 0.05 0.05 86 1013.9
20260507185927 15 0 0.0 0.0 0.00 0.05 0.05 85 1013.9
20260507185327 15 0 0.0 0.0 0.00 0.05 0.05 85 1013.9
20260507184427 16 0 0.0 0.0 0.00 0.05 0.05 84 1014.0
20260507183548 16 0 0.0 0.0 0.00 0.05 0.05 84 1014.0
20260507182629 16 0 0.0 0.0 0.00 0.05 0.05 84 1014.0
20260507181729 16 126 1.6 4.8 0.00 0.05 0.05 84 1014.0
20260507180827 16 0 0.0 0.0 0.00 0.05 0.05 83 1013.8
20260507175927 16 0 0.0 0.0 0.00 0.05 0.05 83 1013.9
20260507175348 16 201 1.6 3.2 0.00 0.05 0.05 83 1013.9
20260507174448 16 0 0.0 0.0 0.00 0.05 0.05 83 1013.9
20260507173527 16 176 0.0 1.6 0.00 0.05 0.05 82 1013.9
20260507172627 16 196 0.0 1.6 0.00 0.05 0.05 83 1014.0
20260507171727 17 237 1.6 3.2 0.00 0.05 0.05 81 1014.0
20260507170828 17 14 3.2 8.0 0.00 0.05 0.05 81 1013.9
20260507165927 17 248 4.8 8.0 0.00 0.05 0.05 81 1013.7
20260507165327 17 235 6.4 11.3 0.00 0.05 0.05 82 1013.6
20260507164442 17 207 4.8 8.0 0.00 0.05 0.05 81 1013.7
20260507163548 17 205 6.4 9.7 0.00 0.05 0.05 80 1013.7
20260507162627 18 234 4.8 11.3 0.00 0.05 0.05 80 1013.7
20260507161748 18 229 6.4 12.9 0.00 0.05 0.05 79 1013.7
20260507160827 18 185 6.4 11.3 0.00 0.05 0.05 79 1013.7
20260507160009 18 129 11.3 14.5 0.00 0.05 0.05 77 1013.7
20260507155348 19 270 3.2 8.0 0.00 0.05 0.05 76 1013.6
20260507154427 19 130 6.4 11.3 0.00 0.05 0.05 76 1013.7
20260507153528 20 234 4.8 8.0 0.00 0.05 0.05 76 1013.8
20260507152627 20 231 6.4 11.3 0.00 0.05 0.05 76 1013.6
20260507151727 20 208 3.2 6.4 0.00 0.05 0.05 77 1013.8
20260507150848 19 133 6.4 12.9 0.00 0.05 0.05 76 1013.9
20260507145948 18 186 1.6 3.2 0.00 0.05 0.05 77 1013.9
20260507145327 19 216 6.4 8.0 0.00 0.05 0.05 77 1013.8
20260507144503 19 273 4.8 9.7 0.00 0.05 0.05 77 1013.7
20260507143528 19 315 3.2 6.4 0.00 0.05 0.05 76 1013.9
20260507142627 19 214 9.7 16.1 0.00 0.05 0.05 77 1013.8
20260507040835 15 76 3.2 6.4 0.00 0.33 0.00 84 1011.9
20260507035936 15 79 1.6 4.8 0.00 0.36 0.00 84 1012.0
20260507035357 15 66 4.8 8.0 0.00 0.38 0.00 84 1011.9
20260507034435 15 41 0.0 1.6 0.00 0.41 0.00 83 1012.0
20260507033535 15 23 8.0 14.5 0.00 0.41 0.00 83 1012.0
20260507032656 15 106 3.2 8.0 0.00 0.41 0.00 83 1011.9
20260507031735 15 84 4.8 9.7 0.00 0.41 0.00 83 1011.9
20260507030835 15 48 1.6 3.2 0.00 0.41 0.00 83 1012.0
20260507025934 15 93 3.2 6.4 0.00 0.41 0.00 83 1011.9
20260507025334 15 69 3.2 8.0 0.00 0.41 0.00 83 1011.9
20260507024435 15 140 3.2 4.8 0.00 0.43 0.00 83 1011.8
20260507023535 15 92 3.2 6.4 0.00 0.43 0.00 83 1011.9
20260507022634 15 151 4.8 6.4 0.00 0.43 0.00 83 1011.8
20260507021735 15 78 4.8 9.7 0.00 0.48 0.00 83 1011.8
20260507020842 15 110 3.2 4.8 0.00 0.53 0.00 83 1011.8
20260507015935 15 102 4.8 8.0 0.00 0.58 0.00 83 1011.8
20260507015356 15 80 0.0 1.6 0.00 0.64 0.00 83 1011.8
20260507014455 15 74 1.6 4.8 0.00 0.74 0.00 83 1011.7
20260507013535 15 118 1.6 4.8 0.00 0.84 0.00 83 1011.7
20260507012635 15 102 1.6 4.8 0.00 0.99 0.00 83 1011.8
20260507011735 15 54 1.6 4.8 0.00 1.12 0.00 83 1011.9
20260507010834 15 32 1.6 3.2 0.00 1.45 0.00 83 1011.9
20260507005934 15 297 4.8 9.7 0.00 1.45 0.00 83 1011.9
20260507005335 15 4 1.6 3.2 0.00 1.47 0.00 83 1012.0
20260507004435 15 316 3.2 6.4 0.00 1.50 0.00 84 1012.0
20260507003535 15 49 3.2 6.4 0.00 1.52 0.00 83 1011.9
20260507002635 15 115 3.2 6.4 0.00 1.52 0.00 83 1011.9
20260507001756 15 78 6.4 11.3 0.00 1.55 0.00 83 1011.9
20260507000856 15 14 0.0 4.8 0.00 1.55 0.00 83 1011.7
20260506235934 15 18 8.0 12.9 0.00 1.55 0.00 83 1011.7
20260506235334 15 1 4.8 6.4 0.00 1.55 0.00 83 1011.9
20260506234457 15 345 3.2 6.4 0.00 1.55 0.00 82 1011.9
20260506233556 15 27 1.6 4.8 0.00 1.55 0.00 82 1012.0
20260506232635 15 48 4.8 9.7 0.00 1.55 0.00 81 1012.0
20260506231756 15 46 4.8 8.0 0.00 1.55 0.00 81 1011.9
20260506230857 15 33 4.8 4.8 0.00 1.55 0.00 81 1012.0
20260506225936 15 86 0.0 3.2 0.00 1.55 0.00 81 1012.0
20260506225355 15 46 3.2 11.3 0.00 1.55 0.00 81 1012.0